Findlay, OH

10:40 PM EST on December 13, 2019 (GMT -0500)
Findlay

Weather History for KFDY - October, 2019

Change the Weather History Date:

Thursday, October 31, 2019

  Actual Average Record
Temperature  
Mean Temperature 44 °F -  
Max Temperature 53 °F 59 °F 81 °F (1950)
Min Temperature 36 °F 40 °F 22 °F (1988)
Degree Days  
Heating Degree Days 21    
Moisture  
Dew Point 43 °F    
Average Humidity 90    
Maximum Humidity 96    
Minimum Humidity 79    
Precipitation  
Precipitation 0.65 in - - ()
Sea Level Pressure  
Sea Level Pressure 29.71 in    
Wind  
Wind Speed 9 mph (West)    
Max Wind Speed 29 mph    
Max Gust Speed 41 mph    
Visibility 6 miles    
Events Fog , Rain , Snow    
Averages and records for this station are not official NWS values.
T = Trace of Precipitation, MM = Missing Value Source: NWS Daily Summary

Daily Weather History Graph

Daily Weather History Graph

Search for Another Location

Airport or City:

Astronomy

Oct. 31, 2019 Rise Set
Actual Time 8:04 AM EDT 6:31 PM EDT
Civil Twilight 7:35 AM EDT 7:00 PM EDT
Nautical Twilight 7:03 AM EDT 7:32 PM EDT
Astronomical Twilight 6:31 AM EDT 8:04 PM EDT
Moon 11:52 AM EDT (10/31) 9:26 PM EDT (10/31)
Length of Visible Light 11h 24m
Length of Day
10h 27m
Waxing Crescent, 15% of the Moon is Illuminated
Oct 31
Waxing Crescent
Nov 4
First Quarter
Nov 12
Full
Nov 19
Last Quarter
Nov 26
New

Hourly Weather History & Observations

Time (EDT) Temp. Windchill Dew Point Humidity Pressure Visibility Wind Dir Wind Speed Gust Speed Precip Events Conditions
12:12 AM 50.0 °F - 48.9 °F 96% 29.83 in 4.0 mi ENE 6.9 mph - 0.01 in Rain Light Rain
12:53 AM 51.1 °F - 48.9 °F 92% 29.83 in 10.0 mi Calm Calm - 0.01 in   Overcast
1:53 AM 51.1 °F - 48.9 °F 92% 29.80 in 5.0 mi NNW 4.6 mph - 0.00 in   Overcast
2:53 AM 51.1 °F - 48.9 °F 92% 29.77 in 9.0 mi NNE 4.6 mph - N/A   Overcast
3:22 AM 51.1 °F - 48.9 °F 92% 29.76 in 7.0 mi NNE 3.5 mph - N/A   Overcast
3:48 AM 50.0 °F - 48.2 °F 94% 29.73 in 3.0 mi ENE 5.8 mph - N/A   Overcast
3:53 AM 50.0 °F - 48.9 °F 96% 29.73 in 1.5 mi ENE 3.5 mph - N/A   Overcast
4:15 AM 50.0 °F - 48.9 °F 96% 29.73 in 0.8 mi East 4.6 mph - N/A   Mist
4:26 AM 50.0 °F - 48.9 °F 96% 29.72 in 0.5 mi ENE 4.6 mph - N/A Fog Fog
4:46 AM 50.0 °F - 48.9 °F 96% 29.72 in 0.2 mi East 3.5 mph - N/A Fog Fog
4:53 AM 50.0 °F - 48.9 °F 96% 29.72 in 0.2 mi SE 3.5 mph - N/A Fog Fog
5:53 AM 51.1 °F - 48.9 °F 92% 29.70 in 0.2 mi East 4.6 mph - N/A Fog Fog
6:21 AM 51.1 °F - 50.0 °F 96% 29.70 in 0.5 mi ESE 3.5 mph - 0.01 in Fog , Rain Light Rain
6:48 AM 51.8 °F - 50.0 °F 94% 29.69 in 2.5 mi Calm Calm - 0.05 in Rain Light Rain
6:51 AM 51.8 °F - 50.0 °F 94% 29.69 in 3.0 mi Calm Calm - 0.06 in Rain Rain
6:53 AM 51.1 °F - 50.0 °F 96% 29.68 in 3.0 mi Calm Calm - 0.07 in Rain Rain
7:09 AM 51.1 °F - 50.0 °F 96% 29.67 in 5.0 mi East 3.5 mph - 0.03 in Rain Light Rain
7:53 AM 51.1 °F - 50.0 °F 96% 29.63 in 7.0 mi ENE 4.6 mph - 0.07 in Rain Light Rain
8:53 AM 51.1 °F - 48.9 °F 92% 29.59 in 6.0 mi North 8.1 mph - 0.09 in Rain Rain
9:53 AM 50.0 °F - 48.9 °F 96% 29.58 in 3.0 mi NNE 6.9 mph - 0.10 in Rain Rain
10:48 AM 51.8 °F - 48.2 °F 88% 29.55 in 3.0 mi North 5.8 mph - 0.12 in Rain Rain
10:53 AM 51.1 °F - 48.9 °F 92% 29.55 in 3.0 mi NNW 5.8 mph - 0.13 in Rain Rain
11:21 AM 51.1 °F - 48.9 °F 92% 29.55 in 4.0 mi Calm Calm - 0.05 in Rain Light Rain
11:53 AM 51.1 °F - 50.0 °F 96% 29.55 in 4.0 mi WSW 5.8 mph - 0.10 in Rain Rain
12:49 PM 51.8 °F - 50.0 °F 94% 29.52 in 10.0 mi WSW 10.4 mph - 0.01 in Rain Light Rain
12:53 PM 52.0 °F - 50.0 °F 93% 29.51 in 10.0 mi WSW 10.4 mph - 0.01 in   Overcast
1:53 PM 50.0 °F - 46.0 °F 86% 29.53 in 10.0 mi WSW 21.9 mph 29.9 mph 0.01 in   Overcast
2:46 PM 48.0 °F - 45.0 °F 89% 29.55 in 5.0 mi WSW 21.9 mph 29.9 mph 0.00 in Rain Light Rain
2:53 PM 46.9 °F - 44.1 °F 90% 29.55 in 7.0 mi WSW 18.4 mph 29.9 mph 0.00 in Rain Light Rain
3:21 PM 46.9 °F - 42.1 °F 83% 29.56 in 10.0 mi WSW 24.2 mph 35.7 mph 0.00 in   Overcast
3:45 PM 46.0 °F 38.0 °F 39.9 °F 79% 29.58 in 10.0 mi WSW 21.9 mph 40.3 mph 0.00 in   Overcast
3:53 PM 45.0 °F 36.2 °F 39.9 °F 82% 29.58 in 10.0 mi SW 24.2 mph 40.3 mph 0.00 in   Overcast
4:53 PM 41.0 °F 30.5 °F 36.0 °F 82% 29.62 in 10.0 mi WSW 26.5 mph 39.1 mph N/A   Overcast
5:45 PM 37.9 °F 27.6 °F 33.1 °F 83% 29.65 in 10.0 mi SW 20.7 mph 41.4 mph 0.00 in Rain Light Rain
5:53 PM 37.9 °F 27.1 °F 32.0 °F 79% 29.66 in 10.0 mi SW 23.0 mph 33.4 mph 0.00 in Rain Light Rain
6:50 PM 37.4 °F 26.4 °F 32.0 °F 81% 29.69 in 7.0 mi SW 23.0 mph 36.8 mph 0.00 in Snow Light Snow
6:53 PM 37.0 °F 24.7 °F 32.0 °F 82% 29.69 in 7.0 mi SW 28.8 mph 39.1 mph 0.00 in Snow Light Snow
7:53 PM 36.0 °F 24.4 °F 33.1 °F 89% 29.74 in 4.0 mi WSW 23.0 mph 35.7 mph 0.00 in Snow Light Snow
8:37 PM 37.0 °F 25.9 °F 34.0 °F 89% 29.79 in 6.0 mi West 23.0 mph 36.8 mph 0.01 in Snow Light Snow
8:53 PM 37.0 °F 25.9 °F 34.0 °F 89% 29.82 in 8.0 mi West 23.0 mph 31.1 mph 0.02 in Rain Light Rain
9:22 PM 37.0 °F 25.6 °F 34.0 °F 89% 29.86 in 7.0 mi West 24.2 mph 33.4 mph 0.01 in Rain Light Rain
9:53 PM 36.0 °F 24.2 °F 33.1 °F 89% 29.91 in 5.0 mi West 24.2 mph 32.2 mph 0.03 in Snow Light Snow
10:33 PM 37.0 °F 25.6 °F 34.0 °F 89% 29.95 in 10.0 mi West 24.2 mph 32.2 mph 0.01 in Rain Light Rain
10:53 PM 37.0 °F 25.9 °F 34.0 °F 89% 29.98 in 9.0 mi West 23.0 mph 31.1 mph 0.01 in Rain Light Rain
11:13 PM 36.0 °F 24.7 °F 34.0 °F 93% 29.98 in 7.0 mi West 21.9 mph 29.9 mph 0.00 in Snow Light Snow
11:51 PM 37.4 °F 26.4 °F 33.8 °F 87% 30.00 in 10.0 mi West 23.0 mph 33.4 mph 0.00 in Rain Light Rain
11:53 PM 37.0 °F 25.9 °F 34.0 °F 89% 30.01 in 10.0 mi West 23.0 mph 33.4 mph 0.00 in Rain Light Rain